Marathon, FL

7:25 PM EDT on August 20, 2017 (GMT -0400)
Florida Keys Marathon

Weather History for KMTH - November, 2013

Change the Weather History Date:

Monday, November 25, 2013

  Actual Average Record
Temperature  
Mean Temperature 76 °F 75 °F  
Max Temperature 80 °F 79 °F 85 °F (2014)
Min Temperature 72 °F 70 °F 57 °F (2012)
Degree Days  
Heating Degree Days 0 0  
Month to date heating degree days 0 0  
Since 1 July heating degree days 0 0  
Cooling Degree Days 11 10  
Month to date cooling degree days 358 278  
Year to date cooling degree days 5219 4717  
Growing Degree Days 26 (Base 50)    
Moisture  
Dew Point 68 °F    
Average Humidity 78    
Maximum Humidity 87    
Minimum Humidity 69    
Precipitation  
Precipitation 0.43 in 0.07 in 0.43 in (2013)
Month to date precipitation 3.79 2.44  
Year to date precipitation 47.30 43.77  
Snow  
Snow 0.00 in - - ()
Month to date snowfall 0.0  
Since 1 July snowfall 0.0  
Since 1 September snowfall 0.0  
Snow Depth 0.00 in    
Sea Level Pressure  
Sea Level Pressure 30.06 in    
Wind  
Wind Speed 18 mph (ENE)    
Max Wind Speed 26 mph    
Max Gust Speed 36 mph    
Visibility 9 miles    
Events Rain    
T = Trace of Precipitation, MM = Missing Value Source: NWS Daily Summary

Daily Weather History Graph

Daily Weather History Graph

Search for Another Location

Airport or City:

Trip Planner

Search our weather history database for the weather conditions in past years. The results will help you decide how hot, cold, wet, or windy it might be!

Date:

Astronomy

Nov. 25, 2013 Rise Set
Actual Time 6:47 AM EST 5:34 PM EST
Civil Twilight 6:23 AM EST 5:59 PM EST
Nautical Twilight 5:55 AM EST 6:27 PM EST
Astronomical Twilight 5:27 AM EST 6:54 PM EST
Moon No Moon Rise 12:27 PM EST (11/25)
Length of Visible Light 11h 36m
Length of Day
10h 47m
Waning Gibbous, 51% of the Moon is Illuminated
Nov 25
Waning Gibbous
Nov 25
Last Quarter
Dec 2
New
Dec 9
First Quarter
Dec 17
Full

Hourly Weather History & Observations

Time (EST) Temp. Dew Point Humidity Pressure Visibility Wind Dir Wind Speed Gust Speed Precip Events Conditions
12:39 AM 73.9 °F 70.0 °F 87% 30.08 in 5.0 mi ENE 18.4 mph 28.8 mph 0.01 in Rain Light Rain
12:48 AM 75.2 °F 69.8 °F 83% 30.08 in 10.0 mi NE 19.6 mph 27.6 mph 0.01 in Rain Light Rain
12:53 AM 75.0 °F 70.0 °F 84% 30.08 in 10.0 mi ENE 20.7 mph 27.6 mph 0.01 in   Overcast
1:11 AM 75.0 °F 69.1 °F 82% 30.08 in 9.0 mi ENE 23.0 mph 28.8 mph N/A   Overcast
1:22 AM 73.0 °F 69.1 °F 87% 30.08 in 7.0 mi ENE 19.6 mph 33.4 mph 0.00 in Rain Light Rain
1:53 AM 72.0 °F 69.1 °F 91% 30.07 in 4.0 mi NE 17.3 mph 29.9 mph 0.01 in Rain Light Rain
2:53 AM 73.0 °F 55.0 °F 53% 30.07 in 7.0 mi ENE 11.5 mph 23.0 mph 0.01 in Rain Light Rain
3:13 AM 73.0 °F 50.0 °F 44% 30.06 in 9.0 mi ENE 15.0 mph 25.3 mph 0.01 in Rain Light Rain
3:53 AM 75.0 °F - N/A% 30.06 in 10.0 mi ENE 25.3 mph 29.9 mph 0.01 in   Overcast
4:53 AM 75.0 °F - N/A% 30.06 in 10.0 mi ENE 23.0 mph 31.1 mph N/A   Mostly Cloudy
5:53 AM 75.0 °F - N/A% 30.06 in 10.0 mi ENE 20.7 mph 27.6 mph N/A   Overcast
6:53 AM 75.9 °F 68.0 °F 76% 30.08 in 10.0 mi ENE 24.2 mph 31.1 mph N/A   Overcast
7:53 AM 75.9 °F 66.9 °F 74% 30.09 in 10.0 mi ENE 19.6 mph 32.2 mph N/A   Mostly Cloudy
8:04 AM 75.9 °F 66.9 °F 74% 30.09 in 10.0 mi ENE 19.6 mph 28.8 mph N/A   Mostly Cloudy
8:11 AM 75.9 °F 66.9 °F 74% 30.09 in 10.0 mi ENE 17.3 mph 28.8 mph N/A   Mostly Cloudy
8:53 AM 77.0 °F 66.9 °F 71% 30.11 in 10.0 mi ENE 17.3 mph 29.9 mph N/A   Overcast
9:53 AM 77.0 °F 68.0 °F 74% 30.13 in 10.0 mi ENE 18.4 mph 26.5 mph N/A   Overcast
10:53 AM 78.1 °F 68.0 °F 71% 30.12 in 10.0 mi ENE 18.4 mph 29.9 mph 0.01 in   Mostly Cloudy
11:53 AM 79.0 °F 68.0 °F 69% 30.11 in 10.0 mi ENE 19.6 mph 29.9 mph N/A   Mostly Cloudy
12:01 PM 79.0 °F 69.1 °F 72% 30.10 in 10.0 mi ENE 21.9 mph 29.9 mph N/A   Mostly Cloudy
12:53 PM 78.1 °F 68.0 °F 71% 30.09 in 10.0 mi ENE 18.4 mph 27.6 mph N/A   Overcast
1:20 PM 78.1 °F 69.1 °F 74% 30.06 in 10.0 mi ENE 16.1 mph 26.5 mph 0.00 in   Overcast
1:39 PM 79.0 °F 69.1 °F 72% 30.06 in 10.0 mi ENE 21.9 mph 28.8 mph 0.00 in   Overcast
1:48 PM 78.8 °F 69.8 °F 74% 30.06 in 10.0 mi ENE 21.9 mph 31.1 mph 0.00 in   Overcast
1:53 PM 79.0 °F 69.1 °F 72% 30.06 in 10.0 mi ENE 18.4 mph 31.1 mph 0.00 in   Overcast
2:13 PM 78.1 °F 69.1 °F 74% 30.06 in 10.0 mi ENE 18.4 mph 26.5 mph 0.00 in Rain Light Rain
2:20 PM 78.1 °F 69.1 °F 74% 30.06 in 10.0 mi ENE 20.7 mph 26.5 mph 0.00 in   Overcast
2:31 PM 77.0 °F 69.1 °F 76% 30.06 in 9.0 mi ENE 19.6 mph - 0.00 in   Overcast
2:53 PM 77.0 °F 69.1 °F 76% 30.05 in 10.0 mi ENE 23.0 mph 32.2 mph 0.00 in   Overcast
3:04 PM 77.0 °F 69.1 °F 76% 30.06 in 10.0 mi ENE 19.6 mph 28.8 mph N/A   Overcast
3:15 PM 75.0 °F 71.1 °F 87% 30.05 in 7.0 mi ENE 18.4 mph 28.8 mph 0.00 in Rain Light Rain
3:44 PM 75.0 °F 71.1 °F 87% 30.04 in 9.0 mi ENE 18.4 mph 25.3 mph 0.00 in   Overcast
3:53 PM 75.0 °F 72.0 °F 90% 30.04 in 9.0 mi ENE 19.6 mph 28.8 mph 0.00 in   Overcast
4:53 PM 75.0 °F 71.1 °F 87% 30.04 in 10.0 mi ENE 16.1 mph 26.5 mph 0.01 in   Overcast
5:38 PM 73.0 °F 71.1 °F 93% 30.04 in 4.0 mi ENE 16.1 mph 25.3 mph 0.01 in Rain Light Rain
5:53 PM 73.9 °F 70.0 °F 87% 30.04 in 8.0 mi ENE 16.1 mph 24.2 mph 0.02 in Rain Light Rain
6:37 PM 73.0 °F - N/A% 30.04 in 2.0 mi East 15.0 mph 26.5 mph 0.10 in Rain Rain
6:45 PM 73.9 °F - N/A% 30.04 in 8.0 mi ENE 16.1 mph 24.2 mph 0.10 in Rain Light Rain
6:53 PM 73.9 °F - N/A% 30.04 in 5.0 mi East 17.3 mph 27.6 mph 0.11 in Rain Light Rain
7:13 PM 73.0 °F - N/A% 30.05 in 2.5 mi ENE 13.8 mph 27.6 mph 0.05 in Rain Heavy Rain
7:21 PM 73.0 °F - N/A% 30.05 in 6.0 mi ENE 10.4 mph 24.2 mph 0.06 in Rain Light Rain
7:41 PM 73.9 °F - N/A% 30.05 in 2.5 mi East 16.1 mph 25.3 mph 0.15 in Rain Heavy Rain
7:53 PM 73.0 °F - N/A% 30.05 in 8.0 mi East 15.0 mph 25.3 mph 0.15 in Rain Light Rain
8:48 PM 73.4 °F - N/A% 30.05 in 10.0 mi East 17.3 mph 33.4 mph 0.02 in Rain Light Rain
8:53 PM 73.9 °F - N/A% 30.05 in 10.0 mi East 17.3 mph 27.6 mph 0.02 in   Mostly Cloudy
9:53 PM 73.9 °F - N/A% 30.04 in 8.0 mi East 16.1 mph 26.5 mph 0.03 in Rain Light Rain
10:41 PM 75.9 °F - N/A% 30.02 in 10.0 mi East 13.8 mph 26.5 mph 0.04 in   Overcast
10:51 PM 75.2 °F - N/A% 30.02 in 10.0 mi East 13.8 mph 25.3 mph 0.04 in   Overcast
10:53 PM 75.9 °F - N/A% 30.02 in 10.0 mi East 13.8 mph 24.2 mph 0.04 in   Overcast
11:24 PM 75.9 °F - N/A% 30.02 in 10.0 mi East 15.0 mph 21.9 mph N/A   Mostly Cloudy
11:31 PM 75.9 °F - N/A% 30.02 in 10.0 mi East 9.2 mph 21.9 mph N/A   Scattered Clouds
11:53 PM 75.9 °F - N/A% 30.01 in 10.0 mi East 12.7 mph 19.6 mph N/A   Scattered Clouds